RH
31 11 10 7 6 10 24 23 46 19 84 94 100 87 98 98 98 53 77 83 69 74 81 72 71 76 98 94 98 100 99 99 97 93 49 44 41 36 28 26 23 22 23 22 22 21 20
39 15 9 8 7 12 27 28 49 34 66 75 88 99 82 82 53 50 49 57 69 77 94 97 100 65 99 98 100 100 97 98 99 96 92 55 45 43 40 31 29 27 25 24 24 24 23
47 19 9 8 7 12 26 25 38 66 84 48 71 82 74 49 48 41 45 62 64 82 93 100 96 100 100 95 93 100 100 100 92 80 96 79 60 50 47 41 37 33 30 28 26 26 25
56 21 11 8 8 12 22 28 27 35 60 86 58 34 30 36 41 33 45 61 54 72 98 100 100 100 100 100 100 100 99 100 85 75 81 93 77 73 61 52 46 43 38 34 32 29 28
61 26 15 8 8 12 17 28 20 20 29 43 35 25 23 30 82 93 88 100 70 98 100 100 100 97 100 100 100 99 100 100 80 79 84 97 93 82 78 75 63 51 45 42 38 35 34
67 43 22 8 8 10 17 22 28 20 21 30 33 39 60 70 87 98 100 94 93 100 100 100 98 99 100 93 96 99 100 100 92 83 90 98 97 92 95 96 86 80 74 59 57 52 46
71 71 27 10 8 10 15 19 21 29 22 25 37 56 56 42 34 78 97 100 94 96 93 100 100 98 100 82 73 90 92 98 95 90 81 76 72 68 70 76 79 82 92 90 78 72 76
82 73 42 15 8 8 12 18 22 24 32 24 34 47 42 42 30 34 91 100 98 100 86 99 100 100 88 79 80 92 88 82 82 80 79 74 66 70 63 62 67 70 73 69 73 70 73
87 83 72 24 9 8 9 14 20 27 26 35 32 31 27 23 28 28 34 71 94 98 87 77 69 80 84 89 88 96 94 97 92 80 72 75 70 64 64 68 71 69 71 71 70 66 56
78 91 80 42 12 8 7 11 15 21 29 31 31 46 40 34 26 24 19 28 62 64 72 72 74 67 65 85 95 96 94 92 84 81 78 73 66 60 64 67 67 63 58 47 39 36 28
59 69 92 76 19 9 7 8 12 18 21 30 36 33 52 57 57 54 20 20 28 39 49 64 77 83 87 92 80 94 96 93 94 83 73 67 57 53 48 50 46 51 41 35 28 21 14
59 77 75 87 34 9 9 6 10 14 18 22 27 32 39 49 65 77 32 15 21 25 44 72 81 87 95 93 93 83 82 76 67 60 56 49 42 37 37 33 30 28 23 17 13 10 9
56 70 85 94 81 17 8 7 8 12 16 20 24 28 32 42 46 58 50 17 17 18 28 55 69 86 93 98 96 98 90 68 61 56 46 37 33 30 25 21 17 15 14 13 10 10 10
59 61 73 63 96 59 11 9 6 9 12 17 22 26 31 36 34 42 30 23 15 14 15 22 45 56 66 71 70 64 55 52 44 35 30 25 22 17 15 14 16 14 18 19 21 24 27
52 62 75 68 60 97 39 9 9 6 9 12 18 22 24 34 42 42 42 18 14 16 19 20 26 36 46 56 49 40 36 38 36 34 27 21 15 16 31 36 44 49 53 53 55 50 58
47 58 61 63 58 74 96 22 8 8 6 8 13 18 21 28 39 50 53 45 32 25 25 33 30 32 34 36 36 37 35 30 25 16 19 33 35 40 48 57 68 68 70 70 72 68 77
38 46 48 58 56 56 87 87 15 8 9 6 9 13 17 22 31 43 46 52 58 65 64 59 53 50 48 45 33 26 28 29 34 43 50 57 71 75 78 76 76 77 76 72 73 75 68
30 40 45 54 58 54 51 83 70 14 8 9 6 8 12 16 21 31 37 43 46 44 54 63 66 71 74 71 76 80 76 76 83 89 87 87 90 90 87 86 84 73 72 71 66 65 65
19 32 41 45 62 58 50 56 62 53 16 9 10 6 7 10 14 18 24 24 30 34 38 34 48 61 67 72 82 88 90 92 94 94 90 82 81 79 84 80 77 72 70 67 66 65 52
14 25 35 46 55 61 60 47 82 68 59 20 10 10 7 6 8 10 14 16 16 15 15 22 30 30 30 30 29 29 38 67 57 41 40 66 89 80 74 77 66 45 41 37 26 18 15
18 28 37 52 69 61 58 57 48 69 71 65 25 10 9 10 6 6 8 9 11 11 10 10 12 16 20 20 21 23 25 26 26 26 25 24 25 34 49 42 20 16 14 14 16 16 16
27 34 50 68 70 62 56 58 53 46 57 83 68 33 12 8 10 11 7 6 6 7 8 8 8 12 12 13 12 12 12 13 15 16 18 21 21 23 22 20 18 17 17 16 15 14 12
24 71 76 75 69 68 58 54 54 52 45 47 84 48 34 17 9 8 10 11 10 6 6 6 7 7 7 8 8 8 8 9 9 9 10 13 16 17 17 20 18 17 14 15 14 12 10
31 72 67 64 64 70 64 56 50 52 48 42 45 83 60 42 24 16 9 8 9 11 12 11 9 8 8 7 7 7 6 6 6 6 6 6 6 6 7 8 9 8 7 7 7 7 7
17 52 67 64 60 57 63 57 50 49 46 42 41 46 83 75 41 31 22 16 10 8 8 10 11 12 12 12 12 12 12 11 11 11 11 11 10 10 11 10 10 11 10 10 10 11 13
16 27 62 69 59 56 56 58 53 47 47 37 40 39 39 53 76 73 50 33 21 12 11 11 9 9 8 8 9 9 10 11 10 11 11 12 12 12 12 12 12 14 14 13 11 10 6
19 22 31 51 67 60 52 52 55 52 47 41 34 39 38 36 35 54 75 67 42 27 18 14 11 12 13 13 13 13 11 10 10 10 12 11 11 12 12 11 11 10 10 8 7 5 4
74 66 52 43 57 62 61 55 49 53 52 47 37 35 37 39 36 36 37 67 78 64 43 29 18 16 16 14 13 13 13 13 12 13 10 9 9 9 9 9 9 10 9 8 6 6 4
75 66 64 67 66 59 61 59 56 51 55 54 47 38 38 40 39 37 36 36 43 73 82 72 56 45 26 24 22 18 17 16 16 15 14 11 12 10 11 12 10 9 10 10 9 7 6
Wind_Speed
65 70 77 78 84 79 72 76 74 74 25 19 9 11 11 13 13 15 12 11 10 13 21 30 57 46 50 46 28 34 34 43 50 52 51 49 48 46 45 44 42 41 39 38 36 35 35
66 70 76 78 83 76 70 67 65 71 36 31 27 22 15 22 18 12 9 7 9 7 19 31 44 54 35 37 32 31 28 32 38 48 52 49 48 47 44 41 43 40 37 39 37 36 35
65 70 75 77 80 73 67 64 58 58 56 45 37 28 23 20 14 7 4 5 5 8 18 28 39 27 43 29 30 29 31 26 29 36 47 48 47 45 44 43 42 41 40 40 40 38 37
65 69 73 76 76 71 65 65 53 50 51 48 44 38 28 22 17 11 6 2 5 6 19 31 34 32 37 25 35 32 26 27 26 30 31 42 44 42 41 41 40 41 42 42 42 42 40
64 67 72 73 72 70 65 62 53 45 43 38 35 29 24 21 21 22 11 14 13 14 21 28 33 37 34 33 30 34 34 24 26 25 26 32 40 41 43 44 43 43 43 43 43 43 44
63 65 70 70 69 68 66 60 58 46 38 34 31 28 28 36 34 29 28 23 25 24 20 28 30 36 34 27 33 38 33 25 26 24 24 22 25 29 36 42 44 45 45 46 48 45 45
60 63 67 67 68 65 64 64 60 55 39 32 33 33 31 32 37 36 34 33 27 26 23 20 19 21 30 24 30 33 34 35 25 26 26 26 25 27 28 29 31 32 37 41 42 41 42
60 63 64 65 66 62 61 59 61 60 51 36 31 31 33 32 33 37 41 34 33 28 31 28 24 19 21 23 22 27 29 29 29 27 24 23 20 20 21 23 25 26 28 32 32 32 30
60 60 61 64 62 62 61 56 56 57 58 46 39 30 26 23 24 28 32 36 34 30 29 26 24 19 20 19 21 20 23 24 25 23 20 15 15 13 15 16 18 19 20 20 22 20 23
63 63 60 60 59 61 59 55 54 54 54 52 45 36 33 29 20 15 20 29 30 27 26 27 21 20 19 17 19 19 20 18 18 17 19 15 11 10 9 10 11 11 12 13 15 16 19
60 62 59 57 58 56 58 51 53 52 52 50 47 44 34 28 25 21 15 25 27 24 25 21 18 19 17 17 17 16 16 17 16 16 16 13 11 9 8 8 8 9 11 13 15 17 19
56 59 61 53 54 52 55 51 47 51 51 51 48 46 43 38 33 27 25 22 26 27 26 25 20 17 16 15 18 19 17 16 16 16 14 13 10 8 6 6 7 10 13 15 17 21 24
52 56 59 53 50 52 50 52 41 44 48 50 50 50 48 42 41 40 29 25 24 24 27 26 25 19 20 21 21 21 19 16 14 12 11 9 6 4 5 7 11 15 18 20 22 25 29
49 52 55 56 47 48 47 47 47 37 42 45 47 48 48 47 45 42 39 27 20 23 25 25 24 23 20 19 18 16 14 12 10 9 6 4 3 4 7 11 13 12 13 14 13 15 14
42 46 49 51 52 45 46 42 44 42 35 39 42 44 45 45 43 42 37 32 26 26 24 21 19 17 18 16 13 11 9 7 6 3 1 3 4 3 1 3 4 6 8 10 10 10 8
40 40 44 47 48 45 42 43 38 40 38 33 35 38 41 43 42 40 33 35 34 30 25 21 19 17 14 11 9 8 7 5 3 3 4 4 3 2 6 7 6 7 7 7 7 6 2
36 38 42 44 44 44 35 38 39 35 37 34 30 31 35 37 40 40 35 36 34 29 25 22 20 18 16 15 15 12 10 9 8 6 3 2 1 2 3 4 2 2 2 1 5 5 2
33 35 38 41 42 41 41 29 35 35 31 33 32 27 27 31 32 33 34 34 35 35 33 29 24 22 19 17 15 13 11 10 9 9 8 8 7 7 7 6 5 6 8 7 4 1 3
31 32 35 40 41 39 37 37 27 33 33 27 29 29 23 23 24 25 27 28 28 29 29 29 28 28 26 23 20 19 17 16 14 14 13 11 10 11 12 11 10 8 5 2 1 2 3
28 30 32 37 40 38 37 33 28 23 27 29 24 25 25 23 19 18 18 20 22 23 24 24 23 24 23 22 22 21 20 16 15 15 15 14 12 10 9 7 6 7 6 4 4 3 5
27 29 32 37 35 35 34 34 29 24 19 23 26 22 20 22 21 19 15 14 13 14 15 17 18 17 17 17 16 15 14 13 12 11 10 9 7 5 3 2 4 5 7 8 10 14 16
29 28 33 35 32 29 30 32 32 27 25 19 20 24 23 17 19 19 19 18 16 13 11 10 10 10 8 8 7 8 9 9 8 7 7 7 6 7 9 8 8 9 12 14 16 19 20
31 36 33 29 29 29 28 28 32 31 26 24 18 12 20 22 16 16 17 17 17 16 15 15 13 12 10 9 9 8 8 6 6 7 8 11 12 12 15 16 17 17 20 22 24 27 30
31 27 28 26 27 27 27 25 26 31 31 23 22 15 10 15 19 18 15 15 15 15 15 15 15 14 14 13 12 11 10 9 7 7 8 10 12 14 15 19 19 21 25 26 27 29 31
35 31 28 27 26 27 26 27 28 27 31 30 21 17 14 12 14 19 18 16 15 16 16 15 15 16 17 16 14 14 13 13 15 13 14 12 12 13 13 12 11 15 20 22 24 25 28
42 38 32 29 28 27 27 26 26 30 28 29 28 19 15 16 14 14 19 21 18 16 16 19 19 19 17 18 17 18 18 19 15 16 18 20 21 21 23 22 18 22 22 24 25 23 28
48 48 44 38 35 30 29 29 28 29 29 29 30 28 20 15 17 16 15 17 20 20 17 17 18 20 20 19 18 18 17 19 21 22 21 23 24 24 26 25 19 21 20 23 24 27 28
54 52 53 49 42 38 32 29 31 32 31 30 30 30 32 24 18 17 18 18 19 19 21 21 20 21 23 24 23 22 19 19 19 19 20 20 20 18 17 21 23 21 22 24 26 27 30
53 49 47 52 50 43 39 34 31 31 35 34 33 31 31 33 28 21 19 20 21 22 24 24 24 24 24 25 26 27 24 24 22 19 21 20 25 23 24 21 27 25 27 28 28 29 30
Wind_Direction
3 2 2 1 0 6 5 6 8 9 45 43 108 120 127 87 101 68 104 119 124 163 182 183 196 191 198 206 199 203 205 211 213 212 214 216 219 221 223 225 225 229 232 236 237 239 241
5 5 6 4 5 11 11 18 24 30 47 60 82 96 104 82 89 67 79 116 133 139 175 167 179 187 191 198 203 190 205 211 214 217 211 215 219 223 226 228 231 233 233 238 241 242 243
7 8 8 8 9 16 17 23 35 39 48 69 83 86 85 69 70 62 62 152 166 148 163 163 166 168 184 188 191 172 181 191 200 208 215 213 218 222 225 226 230 234 236 240 243 245 247
10 10 11 10 13 20 21 25 37 40 51 65 70 72 67 62 45 35 59 80 122 113 145 162 166 165 170 170 180 181 189 184 200 205 208 216 215 220 226 229 231 234 238 240 243 246 249
10 12 13 13 17 24 26 27 35 41 49 63 63 62 52 42 62 57 46 84 99 116 131 144 164 169 172 175 174 184 171 170 190 193 196 207 216 219 224 226 229 233 237 241 243 247 249
11 14 15 15 19 27 31 30 32 39 43 47 51 47 47 46 49 61 63 79 95 107 119 145 151 164 169 177 175 184 176 167 174 182 177 189 205 220 231 235 234 236 240 242 247 247 253
13 15 17 16 20 26 34 36 35 36 40 49 49 49 49 40 42 43 66 67 90 93 122 127 150 161 171 176 192 197 204 199 190 198 204 215 220 219 222 227 232 235 239 242 246 251 250
13 16 17 17 19 24 32 36 38 38 37 46 54 53 54 45 41 53 55 76 83 87 109 107 119 136 175 194 187 185 195 197 205 208 206 211 212 217 224 231 235 239 242 246 251 255 258
15 15 17 18 19 24 31 35 35 38 39 40 43 46 47 51 48 53 61 61 75 82 99 91 96 115 123 150 166 173 184 188 189 189 189 177 186 195 209 221 228 234 239 244 247 252 259
17 18 17 18 19 23 31 36 37 36 37 38 40 42 46 45 45 43 71 72 76 85 92 89 95 99 113 133 130 127 132 143 152 166 166 174 182 186 193 205 217 224 234 244 253 258 268
15 16 16 18 19 22 28 37 43 42 41 39 39 41 40 43 47 49 79 88 88 94 93 89 98 101 111 122 135 126 124 137 140 147 158 164 168 169 180 203 224 233 249 258 265 268 269
15 15 15 20 19 22 26 34 44 49 50 48 45 43 42 44 45 51 72 99 104 93 94 93 95 99 101 114 130 136 131 124 125 132 141 147 153 167 189 218 242 255 261 266 267 270 270
14 14 15 20 21 21 23 30 38 48 50 50 49 49 47 45 47 48 65 100 105 92 91 97 95 102 102 102 113 121 126 130 130 136 138 143 159 188 234 253 260 262 262 265 269 273 279
13 13 14 14 19 21 21 26 32 37 45 49 50 48 49 50 52 56 59 80 107 94 90 100 105 107 110 109 112 116 117 123 126 133 142 166 208 263 278 276 275 274 275 271 271 264 269
9 12 10 13 17 18 20 22 29 31 34 44 49 49 47 50 53 58 64 77 94 92 91 94 105 114 116 122 124 120 125 124 125 135 109 302 286 287 243 283 285 277 274 269 270 277 284
1 10 11 9 16 18 17 21 23 31 29 33 45 49 50 49 53 58 63 66 70 74 74 75 83 88 89 94 90 96 100 104 92 56 76 66 48 292 287 281 280 265 271 270 278 301 36
356 2 6 10 11 14 17 18 20 25 30 27 36 46 48 51 55 58 62 64 67 71 73 75 77 80 84 89 93 95 97 92 89 76 42 324 255 132 102 82 70 327 303 38 109 116 124
347 357 1 5 7 10 15 16 19 19 24 27 27 34 41 52 54 61 63 63 66 66 68 73 72 72 74 81 84 88 90 89 82 83 91 91 94 92 76 66 72 98 109 115 119 81 350
337 348 355 0 2 4 12 18 18 15 19 21 24 27 29 39 49 55 58 60 61 62 65 68 72 76 78 79 80 83 90 93 92 93 89 86 81 90 88 89 88 84 87 80 5 352 357
326 338 347 350 354 357 360 14 17 14 9 16 15 20 24 26 28 38 46 50 51 52 57 62 68 69 72 72 72 71 73 73 68 72 76 76 82 100 101 82 63 58 53 38 15 354 331
317 328 337 342 346 351 352 356 9 5 6 3 11 9 13 17 22 21 17 26 39 42 43 42 51 56 62 59 56 56 55 55 55 50 47 51 64 85 77 33 27 17 351 344 338 330 334
312 321 326 334 340 343 344 345 352 4 359 355 360 5 5 3 9 11 15 13 10 7 7 17 26 34 39 45 44 26 12 9 10 5 358 352 344 335 322 307 311 317 317 313 319 316 317
308 314 316 324 332 335 333 336 336 346 353 352 349 354 354 1 356 356 355 2 7 6 2 357 1 1 0 3 355 349 343 341 334 321 307 304 300 300 307 308 312 311 310 309 313 311 312
305 315 323 323 327 332 329 329 330 332 338 344 350 343 340 343 350 357 348 338 342 347 349 351 352 354 353 354 355 357 358 354 348 334 322 306 299 299 292 294 300 302 304 302 303 304 306
296 301 307 312 315 321 324 323 322 326 327 330 337 346 330 323 331 334 340 350 335 324 324 325 329 332 333 334 334 334 333 331 327 327 322 317 311 309 311 306 316 309 301 305 303 305 304
290 292 293 302 306 310 314 315 312 317 318 319 321 328 335 330 318 315 316 328 334 342 326 318 316 313 313 316 314 318 319 318 316 315 311 310 311 312 310 310 314 309 305 311 313 316 318
284 287 289 292 295 298 305 306 306 304 307 310 309 314 318 318 332 323 311 303 310 318 323 324 329 327 326 323 321 316 313 305 306 307 307 302 302 308 308 312 319 315 321 321 323 329 332
280 280 282 285 286 292 295 296 301 298 297 299 300 302 308 310 312 316 320 308 297 296 299 306 306 310 316 316 319 324 324 325 324 328 319 322 316 317 314 316 310 315 320 325 328 329 332
278 279 279 279 280 279 286 288 288 294 295 292 291 291 293 301 305 307 308 310 309 301 295 293 294 297 298 302 305 308 310 312 311 315 309 308 304 307 311 316 310 314 315 317 324 324 325